User: anonymous   Login
Location: Unspecified
(0.0000°N, 0.0000°E)
Time: 15:17:37
(UTC+01:00)
Language:

Gbstr 26 Del rocket - Orbit

View from above orbital plane
View from above orbital plane
View from above satellite
View from above satellite

Ground track
Ground track

The orbit data is extracted from the following two-line orbital elements,

1 25876U 99041E   14304.08153649  .00003452  00000-0  63630-3 0  5091
2 25876 051.7623 141.8404 0540044 111.9767 029.7492 14.02432521779780
Epoch (UTC): 31 October 2014 01:57:24
Eccentricity: 0.0540044
inclination: 51.7623°
perigee height: 493 km
apogee height: 1277 km
right ascension of ascending node: 141.8404°
argument of perigee: 111.9767°
revolutions per day: 14.02432521
mean anomaly at epoch: 29.7492°
orbit number at epoch: 77978

The dashed part of the orbit path shows where the satellite is in the earth's shadow,  

DLR